Year,Month,Day,Hour,Minute,Value (Times are PST for temperature in C)
2016,04,01,00,00,12.60
2016,04,01,00,01,12.60
2016,04,01,00,02,12.60
2016,04,01,00,03,12.50
2016,04,01,00,04,12.50
2016,04,01,00,05,12.50
2016,04,01,00,06,12.50
2016,04,01,00,07,12.40
2016,04,01,00,08,12.40
2016,04,01,00,09,12.40
2016,04,01,00,10,12.30
2016,04,01,00,11,12.30
2016,04,01,00,12,12.30
2016,04,01,00,13,12.20
2016,04,01,00,14,12.20
2016,04,01,00,15,12.10
2016,04,01,00,16,12.10
2016,04,01,00,17,12.00
2016,04,01,00,18,11.90
2016,04,01,00,19,11.90
2016,04,01,00,20,11.80
2016,04,01,00,21,11.80
2016,04,01,00,22,11.80
2016,04,01,00,23,11.80
2016,04,01,00,24,11.80
2016,04,01,00,25,11.70
2016,04,01,00,26,11.70
2016,04,01,00,27,11.60
2016,04,01,00,28,11.60
2016,04,01,00,29,11.50
2016,04,01,00,30,11.50
2016,04,01,00,31,11.40
2016,04,01,00,32,11.40
2016,04,01,00,33,11.30
2016,04,01,00,34,11.30
2016,04,01,00,35,11.20
2016,04,01,00,36,11.20
2016,04,01,00,37,11.10
2016,04,01,00,38,11.10
2016,04,01,00,39,11.10
2016,04,01,00,40,11.10
2016,04,01,00,41,11.10
2016,04,01,00,42,11.10
2016,04,01,00,43,11.10
2016,04,01,00,44,11.10
2016,04,01,00,45,11.10
2016,04,01,00,46,11.10
2016,04,01,00,47,11.10
2016,04,01,00,48,11.10
2016,04,01,00,49,11.10
2016,04,01,00,50,11.10
2016,04,01,00,51,11.10
2016,04,01,00,52,11.10
2016,04,01,00,53,11.10
2016,04,01,00,54,11.10
2016,04,01,00,55,11.00
2016,04,01,00,56,11.00
2016,04,01,00,57,11.00
2016,04,01,00,58,11.00
2016,04,01,00,59,11.00
2016,04,01,01,00,11.00
2016,04,01,01,01,11.00
2016,04,01,01,02,11.00
2016,04,01,01,03,11.00
2016,04,01,01,04,11.00
2016,04,01,01,05,11.00
2016,04,01,01,06,11.10
2016,04,01,01,07,11.10
2016,04,01,01,08,11.10
2016,04,01,01,09,11.10
2016,04,01,01,10,11.10
2016,04,01,01,11,11.20
2016,04,01,01,12,11.20
2016,04,01,01,13,11.20
2016,04,01,01,14,11.20
2016,04,01,01,15,11.30
2016,04,01,01,16,11.30
2016,04,01,01,17,11.30
2016,04,01,01,18,11.30
2016,04,01,01,19,11.30
2016,04,01,01,20,11.40
2016,04,01,01,21,11.40
2016,04,01,01,22,11.40
2016,04,01,01,23,11.40
2016,04,01,01,24,11.40
2016,04,01,01,25,11.40
2016,04,01,01,26,11.40
2016,04,01,01,27,11.40
2016,04,01,01,28,11.30
2016,04,01,01,29,11.30
2016,04,01,01,30,11.40
2016,04,01,01,31,11.30
2016,04,01,01,32,11.30
2016,04,01,01,33,11.30
2016,04,01,01,34,11.30
2016,04,01,01,35,11.30
2016,04,01,01,36,11.20
2016,04,01,01,37,11.20
2016,04,01,01,38,11.20
2016,04,01,01,39,11.20
2016,04,01,01,40,11.10
2016,04,01,01,41,11.10
2016,04,01,01,42,11.00
2016,04,01,01,43,11.00
2016,04,01,01,44,10.90
2016,04,01,01,45,10.90
2016,04,01,01,46,10.90
2016,04,01,01,47,10.80
2016,04,01,01,48,10.80
2016,04,01,01,49,10.80
2016,04,01,01,50,10.80
2016,04,01,01,51,10.70
2016,04,01,01,52,10.70
2016,04,01,01,53,10.70
2016,04,01,01,54,10.70
2016,04,01,01,55,10.70
2016,04,01,01,56,10.60
2016,04,01,01,57,10.60
2016,04,01,01,58,10.60
2016,04,01,01,59,10.50
2016,04,01,02,00,10.50
2016,04,01,02,01,10.40
2016,04,01,02,02,10.50
2016,04,01,02,03,10.50
2016,04,01,02,04,10.50
2016,04,01,02,05,10.60
2016,04,01,02,06,10.60
2016,04,01,02,07,10.60
2016,04,01,02,08,10.70
2016,04,01,02,09,10.70
2016,04,01,02,10,10.70
2016,04,01,02,11,10.70
2016,04,01,02,12,10.70
2016,04,01,02,13,10.70
2016,04,01,02,14,10.70
2016,04,01,02,15,10.70
2016,04,01,02,16,10.80
2016,04,01,02,17,10.80
2016,04,01,02,18,10.80
2016,04,01,02,19,10.80
2016,04,01,02,20,10.80
2016,04,01,02,21,10.80
2016,04,01,02,22,10.80
2016,04,01,02,23,10.80
2016,04,01,02,24,10.80
2016,04,01,02,25,10.80
2016,04,01,02,26,10.80
2016,04,01,02,27,10.80
2016,04,01,02,28,10.80
2016,04,01,02,29,10.80
2016,04,01,02,30,10.70
2016,04,01,02,31,10.60
2016,04,01,02,32,10.60
2016,04,01,02,33,10.50
2016,04,01,02,34,10.50
2016,04,01,02,35,10.40
2016,04,01,02,36,10.40
2016,04,01,02,37,10.30
2016,04,01,02,38,10.30
2016,04,01,02,39,10.30
2016,04,01,02,40,10.20
2016,04,01,02,41,10.20
2016,04,01,02,42,10.10
2016,04,01,02,43,10.10
2016,04,01,02,44,10.00
2016,04,01,02,45,10.00
2016,04,01,02,46,9.90
2016,04,01,02,47,9.90
2016,04,01,02,48,9.90
2016,04,01,02,49,9.80
2016,04,01,02,50,9.80
2016,04,01,02,51,9.80
2016,04,01,02,52,9.70
2016,04,01,02,53,9.70
2016,04,01,02,54,9.60
2016,04,01,02,55,9.60
2016,04,01,02,56,9.60
2016,04,01,02,57,9.50
2016,04,01,02,58,9.50
2016,04,01,02,59,9.40
2016,04,01,03,00,9.30
2016,04,01,03,01,9.30
2016,04,01,03,02,9.20
2016,04,01,03,03,9.20
2016,04,01,03,04,9.20
2016,04,01,03,05,9.10
2016,04,01,03,06,9.10
2016,04,01,03,07,9.10
2016,04,01,03,08,9.00
2016,04,01,03,09,9.00
2016,04,01,03,10,8.90
2016,04,01,03,11,8.90
2016,04,01,03,12,8.80
2016,04,01,03,13,8.80
2016,04,01,03,14,8.70
2016,04,01,03,15,8.70
2016,04,01,03,16,8.70
2016,04,01,03,17,8.60
2016,04,01,03,18,8.60
2016,04,01,03,19,8.60
2016,04,01,03,20,8.60
2016,04,01,03,21,8.60
2016,04,01,03,22,8.60
2016,04,01,03,23,8.60
2016,04,01,03,24,8.60
2016,04,01,03,25,8.60
2016,04,01,03,26,8.60
2016,04,01,03,27,8.60
2016,04,01,03,28,8.60
2016,04,01,03,29,8.50
2016,04,01,03,30,8.50
2016,04,01,03,31,8.40
2016,04,01,03,32,8.40
2016,04,01,03,33,8.40
2016,04,01,03,34,8.30
2016,04,01,03,35,8.30
2016,04,01,03,36,8.30
2016,04,01,03,37,8.20
2016,04,01,03,38,8.20
2016,04,01,03,39,8.20
2016,04,01,03,40,8.10
2016,04,01,03,41,8.10
2016,04,01,03,42,8.00
2016,04,01,03,43,8.00
2016,04,01,03,44,7.90
2016,04,01,03,45,7.90
2016,04,01,03,46,7.80
2016,04,01,03,47,7.80
2016,04,01,03,48,7.80
2016,04,01,03,49,7.70
2016,04,01,03,50,7.70
2016,04,01,03,51,7.60
2016,04,01,03,52,7.60
2016,04,01,03,53,7.50
2016,04,01,03,54,7.50
2016,04,01,03,55,7.50
2016,04,01,03,56,7.40
2016,04,01,03,57,7.40
2016,04,01,03,58,7.40
2016,04,01,03,59,7.30
2016,04,01,04,00,7.30
2016,04,01,04,01,7.30
2016,04,01,04,02,7.30
2016,04,01,04,03,7.20
2016,04,01,04,04,7.20
2016,04,01,04,05,7.20
2016,04,01,04,06,7.20
2016,04,01,04,07,7.20
2016,04,01,04,08,7.20
2016,04,01,04,09,7.20
2016,04,01,04,10,7.20
2016,04,01,04,11,7.10
2016,04,01,04,12,7.10
2016,04,01,04,13,7.10
2016,04,01,04,14,7.10
2016,04,01,04,15,7.20
2016,04,01,04,16,7.20
2016,04,01,04,17,7.20
2016,04,01,04,18,7.20
2016,04,01,04,19,7.20
2016,04,01,04,20,7.20
2016,04,01,04,21,7.20
2016,04,01,04,22,7.20
2016,04,01,04,23,7.20
2016,04,01,04,24,7.20
2016,04,01,04,25,7.20
2016,04,01,04,26,7.20
2016,04,01,04,27,7.10
2016,04,01,04,28,7.10
2016,04,01,04,29,7.10
2016,04,01,04,30,7.10
2016,04,01,04,31,7.10
2016,04,01,04,32,7.10
2016,04,01,04,33,7.10
2016,04,01,04,34,7.10
2016,04,01,04,35,7.10
2016,04,01,04,36,7.10
2016,04,01,04,37,7.10
2016,04,01,04,38,7.10
2016,04,01,04,39,7.10
2016,04,01,04,40,7.10
2016,04,01,04,41,7.00
2016,04,01,04,42,7.00
2016,04,01,04,43,6.90
2016,04,01,04,44,6.90
2016,04,01,04,45,6.90
2016,04,01,04,46,6.90
2016,04,01,04,47,6.90
2016,04,01,04,48,6.90
2016,04,01,04,49,6.90
2016,04,01,04,50,6.90
2016,04,01,04,51,6.90
2016,04,01,04,52,6.90
2016,04,01,04,53,6.90
2016,04,01,04,54,6.90
2016,04,01,04,55,6.80
2016,04,01,04,56,6.80
2016,04,01,04,57,6.80
2016,04,01,04,58,6.80
2016,04,01,04,59,6.80
2016,04,01,05,00,6.70
2016,04,01,05,01,6.70
2016,04,01,05,02,6.70
2016,04,01,05,03,6.70
2016,04,01,05,04,6.70
2016,04,01,05,05,6.60
2016,04,01,05,06,6.60
2016,04,01,05,07,6.60
2016,04,01,05,08,6.60
2016,04,01,05,09,6.60
2016,04,01,05,10,6.60
2016,04,01,05,11,6.60
2016,04,01,05,12,6.60
2016,04,01,05,13,6.50
2016,04,01,05,14,6.50
2016,04,01,05,15,6.50
2016,04,01,05,16,6.50
2016,04,01,05,17,6.40
2016,04,01,05,18,6.40
2016,04,01,05,19,6.40
2016,04,01,05,20,6.40
2016,04,01,05,21,6.40
2016,04,01,05,22,6.40
2016,04,01,05,23,6.40
2016,04,01,05,24,6.30
2016,04,01,05,25,6.30
2016,04,01,05,26,6.30
2016,04,01,05,27,6.30
2016,04,01,05,28,6.30
2016,04,01,05,29,6.30
2016,04,01,05,30,6.30
2016,04,01,05,31,6.20
2016,04,01,05,32,6.20
2016,04,01,05,33,6.20
2016,04,01,05,34,6.20
2016,04,01,05,35,6.20
2016,04,01,05,36,6.20
2016,04,01,05,37,6.20
2016,04,01,05,38,6.20
2016,04,01,05,39,6.20
2016,04,01,05,40,6.20
2016,04,01,05,41,6.20
2016,04,01,05,42,6.20
2016,04,01,05,43,6.20
2016,04,01,05,44,6.20
2016,04,01,05,45,6.20
2016,04,01,05,46,6.10
2016,04,01,05,47,6.10
2016,04,01,05,48,6.10
2016,04,01,05,49,6.10
2016,04,01,05,50,6.10
2016,04,01,05,51,6.10
2016,04,01,05,52,6.00
2016,04,01,05,53,6.00
2016,04,01,05,54,6.00
2016,04,01,05,55,6.00
2016,04,01,05,56,6.00
2016,04,01,05,57,6.00
2016,04,01,05,58,5.90
2016,04,01,05,59,5.90
2016,04,01,06,00,5.90
2016,04,01,06,01,5.90
2016,04,01,06,02,5.90
2016,04,01,06,03,5.90
2016,04,01,06,04,5.90
2016,04,01,06,05,5.90
2016,04,01,06,06,5.90
2016,04,01,06,07,5.90
2016,04,01,06,08,5.90
2016,04,01,06,09,5.90
2016,04,01,06,10,5.90
2016,04,01,06,11,5.90
2016,04,01,06,12,5.90
2016,04,01,06,13,5.90
2016,04,01,06,14,5.80
2016,04,01,06,15,5.80
2016,04,01,06,16,5.80
2016,04,01,06,17,5.80
2016,04,01,06,18,5.80
2016,04,01,06,19,5.80
2016,04,01,06,20,5.80
2016,04,01,06,21,5.80
2016,04,01,06,22,5.80
2016,04,01,06,23,5.80
2016,04,01,06,24,5.80
2016,04,01,06,25,5.80
2016,04,01,06,26,5.80
2016,04,01,06,27,5.80
2016,04,01,06,28,5.70
2016,04,01,06,29,5.70
2016,04,01,06,30,5.70
2016,04,01,06,31,5.70
2016,04,01,06,32,5.70
2016,04,01,06,33,5.60
2016,04,01,06,34,5.60
2016,04,01,06,35,5.60
2016,04,01,06,36,5.60
2016,04,01,06,37,5.60
2016,04,01,06,38,5.60
2016,04,01,06,39,5.60
2016,04,01,06,40,5.60
2016,04,01,06,41,5.60
2016,04,01,06,42,5.60
2016,04,01,06,43,5.60
2016,04,01,06,44,5.60
2016,04,01,06,45,5.50
2016,04,01,06,46,5.60
2016,04,01,06,47,5.60
2016,04,01,06,48,5.60
2016,04,01,06,49,5.60
2016,04,01,06,50,5.60
2016,04,01,06,51,5.50
2016,04,01,06,52,5.50
2016,04,01,06,53,5.50
2016,04,01,06,54,5.50
2016,04,01,06,55,5.60
2016,04,01,06,56,5.60
2016,04,01,06,57,5.60
2016,04,01,06,58,5.60
2016,04,01,06,59,5.60
2016,04,01,07,00,5.60
2016,04,01,07,01,5.60
2016,04,01,07,02,5.60
2016,04,01,07,03,5.60
2016,04,01,07,04,5.50
2016,04,01,07,05,5.50
2016,04,01,07,06,5.50
2016,04,01,07,07,5.50
2016,04,01,07,08,5.50
2016,04,01,07,09,5.50
2016,04,01,07,10,5.50
2016,04,01,07,11,5.50
2016,04,01,07,12,5.50
2016,04,01,07,13,5.50
2016,04,01,07,14,5.60
2016,04,01,07,15,5.60
2016,04,01,07,16,5.60
2016,04,01,07,17,5.60
2016,04,01,07,18,5.60
2016,04,01,07,19,5.60
2016,04,01,07,20,5.70
2016,04,01,07,21,5.70
2016,04,01,07,22,5.80
2016,04,01,07,23,5.80
2016,04,01,07,24,5.80
2016,04,01,07,25,5.80
2016,04,01,07,26,5.80
2016,04,01,07,27,5.80
2016,04,01,07,28,5.80
2016,04,01,07,29,5.90
2016,04,01,07,30,5.90
2016,04,01,07,31,6.00
2016,04,01,07,32,6.10
2016,04,01,07,33,6.20
2016,04,01,07,34,6.30
2016,04,01,07,35,6.30
2016,04,01,07,36,6.40
2016,04,01,07,37,6.50
2016,04,01,07,38,6.60
2016,04,01,07,39,6.70
2016,04,01,07,40,6.80
2016,04,01,07,41,6.90
2016,04,01,07,42,6.90
2016,04,01,07,43,7.00
2016,04,01,07,44,7.10
2016,04,01,07,45,7.10
2016,04,01,07,46,7.10
2016,04,01,07,47,7.10
2016,04,01,07,48,7.10
2016,04,01,07,49,7.10
2016,04,01,07,50,7.10
2016,04,01,07,51,7.10
2016,04,01,07,52,7.20
2016,04,01,07,53,7.20
2016,04,01,07,54,7.20
2016,04,01,07,55,7.20
2016,04,01,07,56,7.20
2016,04,01,07,57,7.30
2016,04,01,07,58,7.40
2016,04,01,07,59,7.50
2016,04,01,08,00,7.60
2016,04,01,08,01,7.70
2016,04,01,08,02,7.80
2016,04,01,08,03,8.00
2016,04,01,08,04,8.10
2016,04,01,08,05,8.20
2016,04,01,08,06,8.30
2016,04,01,08,07,8.40
2016,04,01,08,08,8.60
2016,04,01,08,09,8.60
2016,04,01,08,10,8.70
2016,04,01,08,11,8.80
2016,04,01,08,12,8.90
2016,04,01,08,13,8.90
2016,04,01,08,14,9.00
2016,04,01,08,15,9.20
2016,04,01,08,16,9.30
2016,04,01,08,17,9.40
2016,04,01,08,18,9.50
2016,04,01,08,19,9.60
2016,04,01,08,20,9.70
2016,04,01,08,21,9.80
2016,04,01,08,22,9.90
2016,04,01,08,23,10.00
2016,04,01,08,24,10.10
2016,04,01,08,25,10.20
2016,04,01,08,26,10.30
2016,04,01,08,27,10.40
2016,04,01,08,28,10.50
2016,04,01,08,29,10.60
2016,04,01,08,30,10.70
2016,04,01,08,31,10.80
2016,04,01,08,32,10.80
2016,04,01,08,33,10.90
2016,04,01,08,34,11.00
2016,04,01,08,35,11.00
2016,04,01,08,36,11.10
2016,04,01,08,37,11.10
2016,04,01,08,38,11.20
2016,04,01,08,39,11.20
2016,04,01,08,40,11.20
2016,04,01,08,41,11.20
2016,04,01,08,42,11.20
2016,04,01,08,43,11.20
2016,04,01,08,44,11.20
2016,04,01,08,45,11.20
2016,04,01,08,46,11.30
2016,04,01,08,47,11.30
2016,04,01,08,48,11.40
2016,04,01,08,49,11.50
2016,04,01,08,50,11.60
2016,04,01,08,51,11.60
2016,04,01,08,52,11.70
2016,04,01,08,53,11.80
2016,04,01,08,54,11.90
2016,04,01,08,55,12.00
2016,04,01,08,56,12.10
2016,04,01,08,57,12.20
2016,04,01,08,58,12.30
2016,04,01,08,59,12.30
2016,04,01,09,00,12.40
2016,04,01,09,01,12.50
2016,04,01,09,02,12.50
2016,04,01,09,03,12.60
2016,04,01,09,04,12.60
2016,04,01,09,05,12.60
2016,04,01,09,06,12.60
2016,04,01,09,07,12.70
2016,04,01,09,08,12.70
2016,04,01,09,09,12.70
2016,04,01,09,10,12.70
2016,04,01,09,11,12.70
2016,04,01,09,12,12.70
2016,04,01,09,13,12.70
2016,04,01,09,14,12.70
2016,04,01,09,15,12.80
2016,04,01,09,16,12.80
2016,04,01,09,17,12.90
2016,04,01,09,18,13.00
2016,04,01,09,19,13.00
2016,04,01,09,20,12.90
2016,04,01,09,21,12.90
2016,04,01,09,22,12.80
2016,04,01,09,23,12.80
2016,04,01,09,24,12.80
2016,04,01,09,25,12.80
2016,04,01,09,26,12.90
2016,04,01,09,27,12.90
2016,04,01,09,28,12.90
2016,04,01,09,29,12.80
2016,04,01,09,30,12.80
2016,04,01,09,31,12.70
2016,04,01,09,32,12.70
2016,04,01,09,33,12.80
2016,04,01,09,34,12.80
2016,04,01,09,35,12.90
2016,04,01,09,36,12.90
2016,04,01,09,37,12.90
2016,04,01,09,38,13.00
2016,04,01,09,39,13.00
2016,04,01,09,40,13.10
2016,04,01,09,41,13.10
2016,04,01,09,42,13.20
2016,04,01,09,43,13.10
2016,04,01,09,44,13.10
2016,04,01,09,45,13.10
2016,04,01,09,46,13.00
2016,04,01,09,47,12.90
2016,04,01,09,48,13.00
2016,04,01,09,49,13.10
2016,04,01,09,50,13.10
2016,04,01,09,51,13.10
2016,04,01,09,52,13.00
2016,04,01,09,53,13.00
2016,04,01,09,54,13.00
2016,04,01,09,55,13.00
2016,04,01,09,56,13.10
2016,04,01,09,57,13.10
2016,04,01,09,58,13.10
2016,04,01,09,59,13.20
2016,04,01,10,00,13.10
2016,04,01,10,01,13.10
2016,04,01,10,02,13.10
2016,04,01,10,03,13.10
2016,04,01,10,04,13.20
2016,04,01,10,05,13.30
2016,04,01,10,06,13.40
2016,04,01,10,07,13.50
2016,04,01,10,08,13.60
2016,04,01,10,09,13.70
2016,04,01,10,10,13.70
2016,04,01,10,11,13.80
2016,04,01,10,12,13.80
2016,04,01,10,13,13.80
2016,04,01,10,14,13.80
2016,04,01,10,15,13.80
2016,04,01,10,16,13.80
2016,04,01,10,17,13.80
2016,04,01,10,18,13.90
2016,04,01,10,19,14.10
2016,04,01,10,20,14.20
2016,04,01,10,21,14.30
2016,04,01,10,22,14.30
2016,04,01,10,23,14.40
2016,04,01,10,24,14.40
2016,04,01,10,25,14.30
2016,04,01,10,26,14.30
2016,04,01,10,27,14.20
2016,04,01,10,28,14.20
2016,04,01,10,29,14.10
2016,04,01,10,30,14.10
2016,04,01,10,31,14.20
2016,04,01,10,32,14.20
2016,04,01,10,33,14.30
2016,04,01,10,34,14.40
2016,04,01,10,35,14.40
2016,04,01,10,36,14.40
2016,04,01,10,37,14.40
2016,04,01,10,38,14.40
2016,04,01,10,39,14.40
2016,04,01,10,40,14.40
2016,04,01,10,41,14.40
2016,04,01,10,42,14.40
2016,04,01,10,43,14.20
2016,04,01,10,44,14.10
2016,04,01,10,45,14.10
2016,04,01,10,46,14.10
2016,04,01,10,47,14.10
2016,04,01,10,48,14.10
2016,04,01,10,49,14.10
2016,04,01,10,50,14.10
2016,04,01,10,51,14.20
2016,04,01,10,52,14.20
2016,04,01,10,53,14.30
2016,04,01,10,54,14.30
2016,04,01,10,55,14.30
2016,04,01,10,56,14.20
2016,04,01,10,57,14.10
2016,04,01,10,58,14.00
2016,04,01,10,59,13.90
2016,04,01,11,00,13.90
2016,04,01,11,01,13.90
2016,04,01,11,02,13.90
2016,04,01,11,03,14.00
2016,04,01,11,04,14.00
2016,04,01,11,05,14.20
2016,04,01,11,06,14.20
2016,04,01,11,07,14.20
2016,04,01,11,08,14.10
2016,04,01,11,09,14.10
2016,04,01,11,10,14.20
2016,04,01,11,11,14.10
2016,04,01,11,12,14.10
2016,04,01,11,13,14.00
2016,04,01,11,14,13.90
2016,04,01,11,15,13.90
2016,04,01,11,16,13.90
2016,04,01,11,17,13.90
2016,04,01,11,18,14.00
2016,04,01,11,19,14.10
2016,04,01,11,20,14.10
2016,04,01,11,21,14.20
2016,04,01,11,22,14.20
2016,04,01,11,23,14.30
2016,04,01,11,24,14.30
2016,04,01,11,25,14.30
2016,04,01,11,26,14.30
2016,04,01,11,27,14.40
2016,04,01,11,28,14.50
2016,04,01,11,29,14.50
2016,04,01,11,30,14.70
2016,04,01,11,31,14.80
2016,04,01,11,32,14.80
2016,04,01,11,33,14.90
2016,04,01,11,34,15.00
2016,04,01,11,35,15.00
2016,04,01,11,36,15.00
2016,04,01,11,37,15.00
2016,04,01,11,38,15.00
2016,04,01,11,39,15.00
2016,04,01,11,40,15.00
2016,04,01,11,41,15.00
2016,04,01,11,42,15.00
2016,04,01,11,43,15.00
2016,04,01,11,44,15.20
2016,04,01,11,45,15.30
2016,04,01,11,46,15.40
2016,04,01,11,47,15.50
2016,04,01,11,48,15.50
2016,04,01,11,49,15.60
2016,04,01,11,50,15.60
2016,04,01,11,51,15.60
2016,04,01,11,52,15.60
2016,04,01,11,53,15.60
2016,04,01,11,54,15.50
2016,04,01,11,55,15.50
2016,04,01,11,56,15.60
2016,04,01,11,57,15.70
2016,04,01,11,58,15.60
2016,04,01,11,59,15.50
2016,04,01,12,00,15.50
2016,04,01,12,01,15.60
2016,04,01,12,02,15.70
2016,04,01,12,03,15.70
2016,04,01,12,04,15.80
2016,04,01,12,05,15.90
2016,04,01,12,06,16.00
2016,04,01,12,07,16.00
2016,04,01,12,08,15.90
2016,04,01,12,09,15.90
2016,04,01,12,10,15.90
2016,04,01,12,11,15.90
2016,04,01,12,12,16.00
2016,04,01,12,13,16.00
2016,04,01,12,14,16.00
2016,04,01,12,15,16.10
2016,04,01,12,16,16.10
2016,04,01,12,17,15.90
2016,04,01,12,18,15.70
2016,04,01,12,19,15.70
2016,04,01,12,20,15.70
2016,04,01,12,21,15.60
2016,04,01,12,22,15.70
2016,04,01,12,23,15.70
2016,04,01,12,24,15.70
2016,04,01,12,25,15.80
2016,04,01,12,26,15.80
2016,04,01,12,27,15.80
2016,04,01,12,28,15.90
2016,04,01,12,29,15.80
2016,04,01,12,30,15.90
2016,04,01,12,31,16.00
2016,04,01,12,32,16.00
2016,04,01,12,33,15.90
2016,04,01,12,34,15.80
2016,04,01,12,35,15.70
2016,04,01,12,36,15.70
2016,04,01,12,37,15.80
2016,04,01,12,38,15.90
2016,04,01,12,39,16.00
2016,04,01,12,40,16.00
2016,04,01,12,41,15.90
2016,04,01,12,42,15.80
2016,04,01,12,43,15.70
2016,04,01,12,44,15.70
2016,04,01,12,45,15.50
2016,04,01,12,46,15.40
2016,04,01,12,47,15.10
2016,04,01,12,48,15.00
2016,04,01,12,49,15.00
2016,04,01,12,50,15.00
2016,04,01,12,51,15.00
2016,04,01,12,52,15.00
2016,04,01,12,53,15.00
2016,04,01,12,54,15.20
2016,04,01,12,55,15.20
2016,04,01,12,56,15.30
2016,04,01,12,57,15.30
2016,04,01,12,58,15.40
2016,04,01,12,59,15.50
2016,04,01,13,00,15.70
2016,04,01,13,01,16.00
2016,04,01,13,02,16.20
2016,04,01,13,03,16.40
2016,04,01,13,04,16.60
2016,04,01,13,05,16.70
2016,04,01,13,06,16.70
2016,04,01,13,07,16.70
2016,04,01,13,08,16.80
2016,04,01,13,09,16.80
2016,04,01,13,10,16.80
2016,04,01,13,11,16.90
2016,04,01,13,12,17.00
2016,04,01,13,13,17.00
2016,04,01,13,14,17.10
2016,04,01,13,15,17.10
2016,04,01,13,16,17.20
2016,04,01,13,17,17.20
2016,04,01,13,18,17.10
2016,04,01,13,19,17.00
2016,04,01,13,20,16.90
2016,04,01,13,21,16.90
2016,04,01,13,22,16.70
2016,04,01,13,23,16.70
2016,04,01,13,24,16.70
2016,04,01,13,25,16.60
2016,04,01,13,26,16.60
2016,04,01,13,27,16.70
2016,04,01,13,28,16.80
2016,04,01,13,29,16.90
2016,04,01,13,30,16.90
2016,04,01,13,31,17.00
2016,04,01,13,32,17.20
2016,04,01,13,33,17.40
2016,04,01,13,34,17.40
2016,04,01,13,35,17.40
2016,04,01,13,36,17.40
2016,04,01,13,37,17.40
2016,04,01,13,38,17.40
2016,04,01,13,39,17.50
2016,04,01,13,40,17.50
2016,04,01,13,41,17.50
2016,04,01,13,42,17.50
2016,04,01,13,43,17.50
2016,04,01,13,44,17.50
2016,04,01,13,45,17.50
2016,04,01,13,46,17.60
2016,04,01,13,47,17.60
2016,04,01,13,48,17.60
2016,04,01,13,49,17.50
2016,04,01,13,50,17.40
2016,04,01,13,51,17.30
2016,04,01,13,52,17.20
2016,04,01,13,53,17.20
2016,04,01,13,54,17.20
2016,04,01,13,55,17.30
2016,04,01,13,56,17.30
2016,04,01,13,57,17.30
2016,04,01,13,58,17.20
2016,04,01,13,59,17.20
2016,04,01,14,00,17.10
2016,04,01,14,01,17.00
2016,04,01,14,02,16.90
2016,04,01,14,03,16.90
2016,04,01,14,04,16.90
2016,04,01,14,05,17.00
2016,04,01,14,06,17.00
2016,04,01,14,07,16.90
2016,04,01,14,08,16.90
2016,04,01,14,09,16.90
2016,04,01,14,10,16.80
2016,04,01,14,11,16.70
2016,04,01,14,12,16.70
2016,04,01,14,13,16.70
2016,04,01,14,14,16.70
2016,04,01,14,15,16.80
2016,04,01,14,16,16.90
2016,04,01,14,17,17.00
2016,04,01,14,18,17.10
2016,04,01,14,19,17.20
2016,04,01,14,20,17.20
2016,04,01,14,21,17.30
2016,04,01,14,22,17.20
2016,04,01,14,23,17.10
2016,04,01,14,24,17.10
2016,04,01,14,25,17.10
2016,04,01,14,26,17.20
2016,04,01,14,27,17.30
2016,04,01,14,28,17.30
2016,04,01,14,29,17.30
2016,04,01,14,30,17.30
2016,04,01,14,31,17.40
2016,04,01,14,32,17.40
2016,04,01,14,33,17.40
2016,04,01,14,34,17.40
2016,04,01,14,35,17.30
2016,04,01,14,36,17.40
2016,04,01,14,37,17.50
2016,04,01,14,38,17.50
2016,04,01,14,39,17.60
2016,04,01,14,40,17.60
2016,04,01,14,41,17.60
2016,04,01,14,42,17.70
2016,04,01,14,43,17.80
2016,04,01,14,44,17.80
2016,04,01,14,45,17.80
2016,04,01,14,46,17.70
2016,04,01,14,47,17.70
2016,04,01,14,48,17.80
2016,04,01,14,49,17.80
2016,04,01,14,50,17.90
2016,04,01,14,51,17.90
2016,04,01,14,52,18.00
2016,04,01,14,53,18.10
2016,04,01,14,54,18.10
2016,04,01,14,55,18.20
2016,04,01,14,56,18.20
2016,04,01,14,57,18.10
2016,04,01,14,58,18.00
2016,04,01,14,59,18.00
2016,04,01,15,00,18.10
2016,04,01,15,01,18.10
2016,04,01,15,02,18.20
2016,04,01,15,03,18.20
2016,04,01,15,04,18.30
2016,04,01,15,05,18.40
2016,04,01,15,06,18.50
2016,04,01,15,07,18.70
2016,04,01,15,08,18.70
2016,04,01,15,09,18.80
2016,04,01,15,10,18.90
2016,04,01,15,11,19.00
2016,04,01,15,12,19.10
2016,04,01,15,13,19.10
2016,04,01,15,14,19.10
2016,04,01,15,15,19.00
2016,04,01,15,16,18.90
2016,04,01,15,17,18.90
2016,04,01,15,18,18.80
2016,04,01,15,19,18.70
2016,04,01,15,20,18.60
2016,04,01,15,21,18.60
2016,04,01,15,22,18.60
2016,04,01,15,23,18.70
2016,04,01,15,24,18.70
2016,04,01,15,25,18.70
2016,04,01,15,26,18.70
2016,04,01,15,27,18.80
2016,04,01,15,28,18.80
2016,04,01,15,29,18.70
2016,04,01,15,30,18.70
2016,04,01,15,31,18.70
2016,04,01,15,32,18.70
2016,04,01,15,33,18.70
2016,04,01,15,34,18.70
2016,04,01,15,35,18.60
2016,04,01,15,36,18.60
2016,04,01,15,37,18.50
2016,04,01,15,38,18.50
2016,04,01,15,39,18.40
2016,04,01,15,40,18.50
2016,04,01,15,41,18.60
2016,04,01,15,42,18.60
2016,04,01,15,43,18.70
2016,04,01,15,44,18.70
2016,04,01,15,45,18.80
2016,04,01,15,46,18.90
2016,04,01,15,47,19.00
2016,04,01,15,48,19.10
2016,04,01,15,49,19.10
2016,04,01,15,50,19.10
2016,04,01,15,51,19.00
2016,04,01,15,52,18.90
2016,04,01,15,53,18.80
2016,04,01,15,54,18.80
2016,04,01,15,55,18.70
2016,04,01,15,56,18.70
2016,04,01,15,57,18.80
2016,04,01,15,58,18.80
2016,04,01,15,59,18.90
2016,04,01,16,00,19.00
2016,04,01,16,01,19.10
2016,04,01,16,02,19.10
2016,04,01,16,03,19.00
2016,04,01,16,04,18.90
2016,04,01,16,05,18.90
2016,04,01,16,06,18.90
2016,04,01,16,07,18.80
2016,04,01,16,08,18.80
2016,04,01,16,09,18.80
2016,04,01,16,10,18.80
2016,04,01,16,11,18.80
2016,04,01,16,12,18.70
2016,04,01,16,13,18.60
2016,04,01,16,14,18.60
2016,04,01,16,15,18.60
2016,04,01,16,16,18.60
2016,04,01,16,17,18.70
2016,04,01,16,18,18.70
2016,04,01,16,19,18.70
2016,04,01,16,20,18.70
2016,04,01,16,21,18.80
2016,04,01,16,22,18.80
2016,04,01,16,23,18.80
2016,04,01,16,24,18.80
2016,04,01,16,25,18.80
2016,04,01,16,26,18.80
2016,04,01,16,27,18.80
2016,04,01,16,28,18.80
2016,04,01,16,29,18.80
2016,04,01,16,30,18.70
2016,04,01,16,31,18.70
2016,04,01,16,32,18.70
2016,04,01,16,33,18.70
2016,04,01,16,34,18.70
2016,04,01,16,35,18.70
2016,04,01,16,36,18.70
2016,04,01,16,37,18.80
2016,04,01,16,38,18.70
2016,04,01,16,39,18.60
2016,04,01,16,40,18.60
2016,04,01,16,41,18.60
2016,04,01,16,42,18.60
2016,04,01,16,43,18.60
2016,04,01,16,44,18.60
2016,04,01,16,45,18.60
2016,04,01,16,46,18.60
2016,04,01,16,47,18.60
2016,04,01,16,48,18.50
2016,04,01,16,49,18.50
2016,04,01,16,50,18.50
2016,04,01,16,51,18.50
2016,04,01,16,52,18.50
2016,04,01,16,53,18.40
2016,04,01,16,54,18.40
2016,04,01,16,55,18.40
2016,04,01,16,56,18.50
2016,04,01,16,57,18.40
2016,04,01,16,58,18.40
2016,04,01,16,59,18.40
2016,04,01,17,00,18.40
2016,04,01,17,01,18.40
2016,04,01,17,02,18.40
2016,04,01,17,03,18.40
2016,04,01,17,04,18.50
2016,04,01,17,05,18.50
2016,04,01,17,06,18.50
2016,04,01,17,07,18.60
2016,04,01,17,08,18.50
2016,04,01,17,09,18.40
2016,04,01,17,10,18.40
2016,04,01,17,11,18.40
2016,04,01,17,12,18.40
2016,04,01,17,13,18.40
2016,04,01,17,14,18.40
2016,04,01,17,15,18.40
2016,04,01,17,16,18.40
2016,04,01,17,17,18.40
2016,04,01,17,18,18.40
2016,04,01,17,19,18.40
2016,04,01,17,20,18.40
2016,04,01,17,21,18.40
2016,04,01,17,22,18.40
2016,04,01,17,23,18.40
2016,04,01,17,24,18.30
2016,04,01,17,25,18.30
2016,04,01,17,26,18.30
2016,04,01,17,27,18.30
2016,04,01,17,28,18.30
2016,04,01,17,29,18.30
2016,04,01,17,30,18.20
2016,04,01,17,31,18.20
2016,04,01,17,32,18.20
2016,04,01,17,33,18.20
2016,04,01,17,34,18.20